TimeMDT,TemperatureF,Dew PointF,Humidity,Sea Level PressureIn,VisibilityMPH,Wind Direction,Wind SpeedMPH,Gust SpeedMPH,PrecipitationIn,Events,Conditions,WindDirDegrees,DateUTC
12:15 AM,60.1,30.9,33,30.02,10.0,Calm,Calm,-,N/A,,Clear,0,2012-10-03 06:15:00
12:35 AM,56.7,30.4,37,30.02,10.0,WNW,4.6,-,N/A,,Clear,290,2012-10-03 06:35:00
12:55 AM,57.0,32.2,39,30.02,10.0,WNW,4.6,-,N/A,,Clear,300,2012-10-03 06:55:00
1:15 AM,57.9,33.6,40,30.02,10.0,Calm,Calm,-,N/A,,Clear,0,2012-10-03 07:15:00
1:35 AM,57.2,29.3,35,30.02,10.0,Calm,Calm,-,N/A,,Clear,0,2012-10-03 07:35:00
1:55 AM,56.3,30.7,38,30.02,10.0,Calm,Calm,-,N/A,,Clear,0,2012-10-03 07:55:00
2:15 AM,56.8,31.5,38,30.03,10.0,Calm,Calm,-,N/A,,Clear,0,2012-10-03 08:15:00
2:35 AM,56.3,29.3,36,30.03,10.0,Calm,Calm,-,N/A,,Clear,0,2012-10-03 08:35:00
2:55 AM,57.2,31.8,38,30.03,10.0,ESE,5.8,-,N/A,,Clear,120,2012-10-03 08:55:00
3:15 AM,55.8,34.2,44,30.03,10.0,South,3.5,-,N/A,,Clear,190,2012-10-03 09:15:00
3:35 AM,52.9,34.2,49,30.04,10.0,SSW,3.5,-,N/A,,Clear,200,2012-10-03 09:35:00
3:55 AM,52.7,34.2,49,30.03,10.0,SSW,5.8,-,N/A,,Clear,200,2012-10-03 09:55:00
4:15 AM,52.9,33.1,47,30.03,10.0,SSW,4.6,-,N/A,,Clear,200,2012-10-03 10:15:00
4:35 AM,55.4,33.8,44,30.04,10.0,SSW,4.6,-,N/A,,Clear,200,2012-10-03 10:35:00
4:55 AM,54.3,35.8,50,30.04,10.0,SSW,4.6,-,N/A,,Clear,210,2012-10-03 10:55:00
5:15 AM,54.1,36.3,51,30.05,10.0,SSW,3.5,-,N/A,,Clear,200,2012-10-03 11:15:00
5:35 AM,52.3,34.0,50,30.06,10.0,Calm,Calm,-,N/A,,Clear,0,2012-10-03 11:35:00
5:55 AM,51.8,33.6,50,30.06,10.0,Calm,Calm,-,N/A,,Clear,0,2012-10-03 11:55:00
6:15 AM,53.4,34.9,49,30.06,10.0,SSE,5.8,-,N/A,,Clear,150,2012-10-03 12:15:00
6:35 AM,51.1,34.7,54,30.06,10.0,South,3.5,-,N/A,,Clear,180,2012-10-03 12:35:00
6:55 AM,50.2,34.2,54,30.06,10.0,South,5.8,-,N/A,,Clear,180,2012-10-03 12:55:00
7:15 AM,50.7,33.8,52,30.07,10.0,SSW,4.6,-,N/A,,Clear,210,2012-10-03 13:15:00
7:35 AM,52.5,33.3,48,30.07,10.0,Calm,Calm,-,N/A,,Clear,0,2012-10-03 13:35:00
7:55 AM,55.2,34.5,46,30.08,10.0,Calm,Calm,-,N/A,,Clear,0,2012-10-03 13:55:00
8:15 AM,59.4,35.6,41,30.08,10.0,Calm,Calm,-,N/A,,Clear,0,2012-10-03 14:15:00
8:35 AM,60.6,35.2,39,30.09,10.0,SSE,3.5,-,N/A,,Clear,160,2012-10-03 14:35:00
8:55 AM,62.8,35.4,36,30.09,10.0,South,3.5,-,N/A,,Clear,170,2012-10-03 14:55:00
9:15 AM,66.2,35.4,32,30.10,10.0,SSE,4.6,-,N/A,,Clear,150,2012-10-03 15:15:00
9:55 AM,70.5,33.8,26,30.11,10.0,SSE,6.9,-,N/A,,Clear,160,2012-10-03 15:55:00
10:15 AM,71.4,36.3,28,30.11,10.0,SE,4.6,-,N/A,,Clear,140,2012-10-03 16:15:00
10:35 AM,72.7,34.2,24,30.11,10.0,SE,5.8,-,N/A,,Clear,140,2012-10-03 16:35:00
10:55 AM,73.8,32.2,22,30.10,10.0,ESE,5.8,-,N/A,,Clear,120,2012-10-03 16:55:00
11:15 AM,74.8,32.9,22,30.10,10.0,SE,4.6,-,N/A,,Clear,140,2012-10-03 17:15:00
11:35 AM,77.2,33.4,20,30.09,10.0,SSE,6.9,-,N/A,,Clear,160,2012-10-03 17:35:00
11:55 AM,79.3,31.1,17,30.09,10.0,SE,5.8,-,N/A,,Clear,130,2012-10-03 17:55:00
12:15 PM,79.7,33.4,19,30.08,10.0,ESE,4.6,-,N/A,,Clear,120,2012-10-03 18:15:00
12:35 PM,82.4,32.7,17,30.07,10.0,SSE,4.6,-,N/A,,Clear,160,2012-10-03 18:35:00
1:15 PM,90.3,28.8,11,30.04,10.0,NW,13.8,18.4,N/A,,Clear,310,2012-10-03 19:15:00
1:35 PM,89.4,28.0,11,30.04,10.0,NNW,11.5,23.0,N/A,,Clear,340,2012-10-03 19:35:00
1:55 PM,90.1,27.7,11,30.03,10.0,NNW,13.8,28.8,N/A,,Clear,330,2012-10-03 19:55:00
2:15 PM,90.1,28.4,11,30.02,10.0,NNW,21.9,32.2,N/A,,Clear,330,2012-10-03 20:15:00
2:35 PM,91.2,29.3,11,30.01,10.0,NNW,15.0,20.7,N/A,,Clear,340,2012-10-03 20:35:00
2:55 PM,91.2,28.9,11,30.02,10.0,NW,11.5,20.7,N/A,,Clear,310,2012-10-03 20:55:00
3:15 PM,90.1,28.6,11,30.01,10.0,NW,13.8,23.0,N/A,,Clear,320,2012-10-03 21:15:00
3:35 PM,90.5,29.1,11,30.01,10.0,WNW,15.0,26.5,N/A,,Clear,300,2012-10-03 21:35:00
3:55 PM,90.0,28.8,11,30.02,10.0,WNW,15.0,21.9,N/A,,Clear,290,2012-10-03 21:55:00
4:15 PM,90.3,28.6,11,30.02,10.0,West,10.4,20.7,N/A,,Clear,280,2012-10-03 22:15:00
4:35 PM,90.1,28.2,11,30.01,10.0,NW,12.7,18.4,N/A,,Clear,320,2012-10-03 22:35:00
4:55 PM,90.5,28.6,11,30.02,10.0,NNW,10.4,18.4,N/A,,Clear,340,2012-10-03 22:55:00
5:15 PM,89.1,27.5,11,30.02,10.0,NNW,12.7,29.9,N/A,,Clear,330,2012-10-03 23:15:00
5:35 PM,87.8,27.1,11,30.02,10.0,NW,6.9,17.3,N/A,,Clear,310,2012-10-03 23:35:00
5:55 PM,86.2,26.6,12,30.03,10.0,NW,10.4,-,N/A,,Clear,310,2012-10-03 23:55:00
6:15 PM,84.4,26.4,12,30.03,10.0,WNW,9.2,-,N/A,,Clear,300,2012-10-04 00:15:00
6:35 PM,83.7,26.4,12,30.04,10.0,WNW,10.4,16.1,N/A,,Clear,300,2012-10-04 00:35:00
6:55 PM,82.0,25.5,13,30.04,10.0,WNW,10.4,-,N/A,,Clear,300,2012-10-04 00:55:00
7:15 PM,82.4,25.7,13,30.04,10.0,WNW,12.7,18.4,N/A,,Clear,300,2012-10-04 01:15:00
7:35 PM,80.2,25.2,13,30.05,10.0,WNW,11.5,16.1,N/A,,Clear,290,2012-10-04 01:35:00
7:55 PM,81.0,25.3,13,30.05,10.0,West,12.7,18.4,N/A,,Clear,270,2012-10-04 01:55:00
8:15 PM,78.8,24.8,14,30.06,10.0,West,11.5,16.1,N/A,,Clear,280,2012-10-04 02:15:00
8:35 PM,79.2,25.3,14,30.06,10.0,West,13.8,-,N/A,,Clear,280,2012-10-04 02:35:00
8:55 PM,79.7,25.0,13,30.07,10.0,West,13.8,-,N/A,,Clear,280,2012-10-04 02:55:00
9:15 PM,81.3,24.3,12,30.07,10.0,West,17.3,25.3,N/A,,Clear,280,2012-10-04 03:15:00
9:35 PM,80.1,23.9,13,30.07,10.0,WNW,17.3,23.0,N/A,,Clear,290,2012-10-04 03:35:00
9:55 PM,79.9,23.9,13,30.07,10.0,WNW,15.0,23.0,N/A,,Clear,290,2012-10-04 03:55:00
10:15 PM,79.7,23.7,13,30.08,10.0,WNW,13.8,24.2,N/A,,Clear,290,2012-10-04 04:15:00
10:35 PM,79.2,23.7,13,30.08,10.0,WNW,13.8,21.9,N/A,,Clear,290,2012-10-04 04:35:00
10:55 PM,78.3,23.4,13,30.09,10.0,WNW,12.7,18.4,N/A,,Clear,290,2012-10-04 04:55:00
11:15 PM,77.2,23.0,13,30.09,10.0,WNW,11.5,-,N/A,,Clear,290,2012-10-04 05:15:00
11:35 PM,78.1,23.2,13,30.10,10.0,WNW,12.7,-,N/A,,Clear,290,2012-10-04 05:35:00
11:55 PM,77.7,23.5,13,30.11,10.0,West,11.5,-,N/A,,Clear,280,2012-10-04 05:55:00